Home > Weather > Leirvik > Past weeks

Flag for Norway Past Weather in Leirvik, Norway — Yesterday and Last 2 Weeks

Now
54 °F

Scattered clouds.


Feels Like: 51 °F
Forecast: 52 / 59 °F
Wind: 8 mph from South

Location: Stord / Soerstokken

Current Time: Jun 28, 2016 at 10:03:00 AM

Latest Report: Jun 28, 2016 at 9:20 AM


Visibility: N/A

Pressure: 29.89 "Hg

Humidity: 94%

Dew Point: 52 °F

Location of LeirvikLocation

Past Weather in Leirvik — Graph

°F

Leirvik Temperature Yesterday

Maximum temperature yesterday: 55 °F (at 11:20 AM)
Minimum temperature yesterday: 52 °F (at 4:50 AM)
Average temperature yesterday: 54 °F

High & Low Weather Summary for the Past Weeks

 TemperatureHumidityPressure
High72 °F (Jun 14, 1:50 PM)100% (Jun 20, 4:50 PM)30.12 "Hg (Jun 20, 4:50 PM)
Low50 °F (Jun 20, 4:50 AM)29% (Jun 14, 12:20 PM)29.56 "Hg (Jun 14, 3:20 PM)
Average60 °F74%29.78 "Hg
* Reported Jun 13 8:20 AM — Jun 28 8:50 AM, Leirvik, Weather by CustomWeather, © 2016

Note: Actual official high and low records may vary slightly from our data, if they occured in-between our weather recording intervals... More about our weather records

Advertising

Leirvik Weather History for the Previous 24 Hours

Scroll right to see more
 ConditionsComfort  
Time TempWeatherWind HumidityBarometerVisibility
8:50 AM
Tue, Jun 28
52 °FSprinkles. Scattered clouds.9 mph94%29.86 "HgN/A
8:20 AM55 °FScattered clouds.8 mph88%29.86 "HgN/A
7:50 AM54 °FScattered clouds.8 mph94%29.86 "HgN/A
7:20 AM54 °FPassing clouds.7 mph94%29.86 "HgN/A
6:50 AM52 °FScattered clouds.6 mph94%29.86 "HgN/A
6:20 AM52 °FScattered clouds.3 mph94%29.86 "HgN/A
5:50 AM50 °FBroken clouds.2 mph94%29.86 "HgN/A
5:20 AM50 °FSprinkles. Broken clouds.5 mph94%29.86 "HgN/A
7:20 PM
Mon, Jun 27
55 °FBroken clouds.10 mph94%29.77 "HgN/A
6:20 PM54 °FLight rain. Broken clouds.13 mph94%29.74 "HgN/A
5:50 PM55 °FBroken clouds.15 mph88%29.74 "HgN/A
4:50 PM54 °FBroken clouds.20 mph100%29.68 "HgN/A
4:20 PM55 °FBroken clouds.13 mph100%29.68 "HgN/A
3:50 PM55 °FDrizzle. Broken clouds.9 mph100%29.65 "Hg3 mi
3:20 PM55 °FDrizzle. Broken clouds.12 mph94%29.65 "Hg1 mi
2:20 PM55 °FLight rain. Broken clouds.9 mph94%29.65 "HgN/A
1:50 PM55 °FLight rain. Broken clouds.9 mph94%29.65 "HgN/A
1:20 PM55 °FLight rain. Broken clouds.12 mph94%29.65 "HgN/A
12:50 PM55 °FLight rain. Broken clouds.10 mph94%29.65 "HgN/A
12:20 PM55 °FLight rain. Broken clouds.9 mph94%29.68 "HgN/A
11:50 AM54 °FBroken clouds.10 mph100%29.68 "HgN/A
11:20 AM55 °FBroken clouds.7 mph94%29.68 "HgN/A
10:50 AM54 °FBroken clouds.9 mph100%29.68 "HgN/A
10:20 AM54 °FBroken clouds.9 mph100%29.68 "HgN/A
Weather by CustomWeather, © 2016

See weather overviewHow to use our weather pages